Flag for India Weather past 2 weeks in Thiruvananthapuram, Kerala, India

Now
79 °F

Haze.


Feels Like: 82 °F
Forecast: 78 / 86 °F
Wind: 6 mph from Northwest

Location: Thiruvananthapuram

Current Time: Aug 30, 2015 at 7:32:25 AM

Latest Report: Aug 30, 2015 at 6:40 AM


Visibility: 2 mi

Pressure: 29.80 "Hg

Humidity: 89%

Dew point: 75 °F

Location of ThiruvananthapuramLocation

Historic Weather in Thiruvananthapuram — Graph

°F

Thiruvananthapuram temperature yesterday

Maximum temperature yesterday: 88 °F (at 2:40 PM)
Minimum temperature yesterday: 77 °F (at 2:40 AM)
Average temperature yesterday: 82 °F

Past Weeks' High & Low Weather Summary

 TemperatureHumidityPressure
High91 °F (Aug 17, 11:10 AM)94% (Aug 16, 5:40 AM)29.92 "Hg (Aug 16, 5:40 AM)
Low77 °F (Aug 16, 3:40 AM)56% (Aug 17, 11:10 AM)29.71 "Hg (Aug 17, 3:40 AM)
Average82 °F80%29.81 "Hg
* Reported Aug 15 7:10 AM — Aug 30 5:40 AM, Thiruvananthapuram, Weather by CustomWeather, © 2015

Note: Actual official high and low records may vary slightly from our data, if they occured in-between our weather recording intervals... More about our weather records

Advertising

Thiruvananthapuram weather history for previous 24 hours

 ConditionsComfort  
Time TempWeatherWind HumidityBarometerVisibility
5:40 AM
Sun, Aug 30
79 °FHaze.7 mph89%29.80 "Hg2 mi
4:40 AM79 °FHaze.5 mph89%29.77 "Hg2 mi
3:40 AM79 °FHaze.5 mph94%29.77 "Hg2 mi
2:40 AM79 °FHaze.5 mph94%29.80 "Hg2 mi
1:40 AM79 °FHaze.5 mph94%29.80 "Hg2 mi
12:40 AM79 °FHaze.5 mph94%29.83 "Hg2 mi
11:40 PM
Sat, Aug 29
81 °FHaze.5 mph89%29.83 "Hg2 mi
10:40 PM81 °FHaze.5 mph89%29.83 "Hg2 mi
10:10 PM81 °FHaze.6 mph89%29.83 "Hg2 mi
9:40 PM82 °FHaze.6 mph84%29.83 "Hg2 mi
9:10 PM82 °FHaze.8 mph84%29.83 "Hg3 mi
8:40 PM82 °FHaze.7 mph79%29.80 "Hg3 mi
8:10 PM82 °FPassing clouds.7 mph79%29.80 "Hg3 mi
7:40 PM82 °FPassing clouds.6 mph79%29.80 "Hg3 mi
7:10 PM84 °FPassing clouds.7 mph74%29.77 "Hg3 mi
6:40 PM84 °FScattered clouds.8 mph79%29.77 "Hg4 mi
5:40 PM86 °FScattered clouds.9 mph75%29.74 "Hg4 mi
5:10 PM86 °FScattered clouds.12 mph75%29.74 "Hg4 mi
4:40 PM86 °FScattered clouds.14 mph75%29.74 "Hg4 mi
2:40 PM88 °FPassing clouds.9 mph75%29.80 "Hg5 mi
10:40 AM86 °FScattered clouds.12 mph75%29.83 "HgN/A
10:10 AM86 °FScattered clouds.12 mph75%29.83 "HgN/A
8:40 AM84 °FPassing clouds.7 mph79%29.83 "Hg5 mi
8:10 AM84 °FPassing clouds.9 mph79%29.80 "Hg4 mi
7:40 AM82 °FPassing clouds.6 mph79%29.80 "Hg4 mi
7:10 AM77 °FPassing clouds.5 mph94%29.80 "Hg4 mi
Weather by CustomWeather, © 2015

See weather overviewHow to use our weather pages